Location: Lixville
(37.5770°N, 89.9118°W)
Time: 13:57:42
(UTC+00:00)

Courier 1B Rocket - Pass Details

Date: 13 November 2024
Orbit: 920 x 1201 km, 28.2° (Epoch: 02 December)

Event Time Altitude Azimuth Distance (km) Brightness Sun altitude
Rises 23:47:35 0° 256° (WSW) 3,678 10.2 -11.7°
Reaches altitude 10° 23:50:31 10° 248° (WSW) 2,692 8.8 -12.3°
Maximum altitude 23:56:17 35° 185° (S) 1,458 6.1 -13.4°
Drops below altitude 10° 00:01:52 10° 121° (ESE) 2,605 6.8 -14.5°
Enters shadow 00:01:56 10° 121° (ESE) 2,627 6.8 -14.5°
